This is the latest recevied weather packets stored in our database for station/object DM5KA-13. If no packets are shown the sender has not sent any weather packets the latest 10 day(s).
| Time | Temp. | Humidity | Pressure | Rain* | Wind** | Luminosity | Snow |
|---|---|---|---|---|---|---|---|
| 1778056217 | 18.89° C | 60% | 1006.3 hPa | 0 mm | 0.89 m/s, 0° | - | - |
| 1778055917 | 18.89° C | 62% | 1006.3 hPa | 0 mm | 0.45 m/s, 0° | - | - |
| 1778055617 | 17.78° C | 63% | 1006.2 hPa | 0 mm | 0.89 m/s, 0° | - | - |
| 1778055317 | 17.78° C | 64% | 1006.2 hPa | 0 mm | 0.45 m/s, 0° | - | - |
| 1778055017 | 17.78° C | 64% | 1006.2 hPa | 0 mm | 0.45 m/s, 0° | - | - |
| 1778054717 | 17.78° C | 65% | 1006.2 hPa | 0 mm | 0.89 m/s, 0° | - | - |
| 1778054417 | 17.78° C | 65% | 1006.2 hPa | 0 mm | 0.45 m/s, 0° | - | - |
| 1778054116 | 17.78° C | 65% | 1006.1 hPa | 0 mm | 0.89 m/s, 0° | - | - |
| 1778053816 | 17.78° C | 65% | 1006.1 hPa | 0 mm | 0.89 m/s, 0° | - | - |
| 1778053516 | 17.78° C | 65% | 1006.1 hPa | 0 mm | 0.89 m/s, 0° | - | - |
| 1778053216 | 17.78° C | 67% | 1006.1 hPa | 0 mm | 0.89 m/s, 0° | - | - |
| 1778052916 | 17.22° C | 68% | 1006.2 hPa | 0 mm | 0.89 m/s, 0° | - | - |
| 1778052616 | 17.22° C | 70% | 1006.3 hPa | 0 mm | 0.45 m/s, 0° | - | - |
| 1778052328 | 17.22° C | 71% | 1006.2 hPa | 0 mm | 0.45 m/s, 0° | - | - |
| 1778052004 | 17.22° C | 72% | 1006.4 hPa | 0 mm | 0.45 m/s, 0° | - | - |
| 1778051704 | 17.22° C | 72% | 1006.4 hPa | 0 mm | 0.89 m/s, 0° | - | - |
| 1778051404 | 17.22° C | 72% | 1006.5 hPa | 0 mm | 0.45 m/s, 0° | - | - |
| 1778051104 | 17.22° C | 73% | 1006.4 hPa | 0 mm | 0.45 m/s, 0° | - | - |
| 1778050804 | 17.22° C | 74% | 1006.4 hPa | 0 mm | 0.89 m/s, 0° | - | - |
| 1778050504 | 17.22° C | 72% | 1006.3 hPa | 0 mm | 0.89 m/s, 0° | - | - |
| 1778050204 | 17.22° C | 71% | 1006.3 hPa | 0 mm | 0.45 m/s, 0° | - | - |
| 1778049904 | 17.22° C | 72% | 1006.3 hPa | 0 mm | 0.45 m/s, 0° | - | - |
| 1778049604 | 17.22° C | 71% | 1006.3 hPa | 0 mm | 0.45 m/s, 0° | - | - |
| 1778049304 | 17.22° C | 72% | 1006.3 hPa | 0 mm | 0.45 m/s, 0° | - | - |
| 1778049004 | 16.11° C | 75% | 1006.3 hPa | 0 mm | 0.89 m/s, 0° | - | - |
* Rain latest hour (hover to see other rain measurements)
** Current wind speed in m/s (hover to see current wind gust speed)